DW2513 Weather Reports


Display with metric or nautical units.
time (UTC)temp
F
wind
direction
speed
MPH
gust
MPH
rain 1hr
in
rain 24hr
in
rain mn
in
humidity
%
barometer
mb
20260904023304 68 122 0.0 0.0 0.00 0.05 0.05 82 1008.4
20260904022805 68 122 0.0 0.0 0.00 0.05 0.05 82 1008.4
20260904021804 68 122 0.0 0.0 0.00 0.05 0.05 82 1008.4
20260904021304 68 122 0.0 0.0 0.00 0.05 0.05 82 1008.4
20260904020804 69 122 0.0 0.0 0.00 0.05 0.05 82 1008.4
20260904020305 69 122 0.0 0.0 0.00 0.05 0.05 82 1008.4
20260904015804 69 122 0.0 0.0 0.00 0.05 0.05 82 1008.4
20260904013305 69 122 0.0 0.0 0.01 0.05 0.05 82 1008.3
20260904012804 69 122 0.0 0.0 0.01 0.05 0.05 82 1008.3
20260904012306 69 122 0.0 0.0 0.01 0.05 0.05 82 1008.3
20260904011305 69 122 0.0 0.0 0.01 0.05 0.05 82 1007.6
20260904010804 69 122 0.0 0.0 0.01 0.05 0.05 82 1007.6
20260904005306 70 122 0.0 0.0 0.01 0.05 0.05 82 1007.6
20260904004805 70 122 0.0 0.0 0.01 0.05 0.05 82 1007.6
20260904004305 70 122 0.0 0.0 0.00 0.04 0.04 82 1007.6
20260904002306 71 122 0.0 0.0 0.00 0.04 0.04 81 1007.6
20260904001305 71 122 0.0 0.0 0.00 0.04 0.04 81 1007.6
20260904000804 71 122 0.0 0.0 0.00 0.04 0.04 81 1007.4
20260903235805 71 122 0.0 0.0 0.00 0.04 0.04 81 1007.4
20260903234804 71 122 0.0 0.0 0.00 0.04 0.04 81 1007.4
20260903232306 72 122 0.0 0.0 0.00 0.04 0.04 80 1007.4
20260903231805 72 122 0.0 0.0 0.00 0.04 0.04 80 1007.4
20260903231305 72 122 0.0 0.0 0.00 0.04 0.04 80 1007.4
20260903230805 72 122 0.0 0.0 0.00 0.04 0.04 79 1007.4
20260903230304 72 122 0.0 0.0 0.00 0.04 0.04 79 1007.3
20260903225306 72 122 0.0 0.0 0.00 0.04 0.04 79 1007.2
20260903224805 72 122 0.0 0.0 0.00 0.04 0.04 79 1007.2
20260903223805 72 122 0.0 0.0 0.00 0.04 0.04 78 1007.2
20260903221804 72 122 0.0 0.0 0.00 0.04 0.04 77 1007.2
20260903220305 73 122 0.0 0.0 0.00 0.04 0.04 77 1007.8
20260903215804 73 122 0.0 0.0 0.00 0.04 0.04 77 1008.3
20260903215306 72 122 0.0 0.0 0.00 0.04 0.04 77 1008.3
20260903214804 72 122 0.0 0.0 0.00 0.04 0.04 77 1008.3
20260903212306 72 123 0.0 0.0 0.00 0.04 0.04 77 1008.3
20260903211804 72 123 0.0 0.0 0.00 0.04 0.04 77 1008.3
20260903211304 72 123 0.0 0.0 0.00 0.04 0.04 77 1008.3
20260903210305 72 123 0.0 0.0 0.00 0.04 0.04 76 1008.3
20260903205804 72 123 0.0 0.0 0.00 0.04 0.04 76 1008.3
20260903204304 73 123 0.0 0.0 0.00 0.04 0.04 75 1008.3
20260903203304 72 123 0.0 0.0 0.00 0.04 0.04 75 1008.3
20260903202804 72 123 0.0 0.0 0.00 0.04 0.04 76 1008.3
20260903202306 72 124 0.0 0.0 0.00 0.04 0.04 76 1008.3
20260903201805 72 139 0.0 1.0 0.00 0.04 0.04 75 1008.3
20260903200305 73 137 0.0 0.0 0.00 0.04 0.04 75 1008.3
20260903195804 73 135 0.0 0.0 0.00 0.04 0.04 75 1008.3
20260903194804 73 135 0.0 0.0 0.00 0.04 0.04 74 1008.3
20260903194305 73 135 0.0 0.0 0.00 0.04 0.04 75 1008.3
20260903193805 73 135 0.0 0.0 0.00 0.04 0.04 74 1008.4
20260903193305 73 135 0.0 0.0 0.00 0.04 0.04 74 1008.4
20260903192306 73 135 0.0 0.0 0.00 0.04 0.04 74 1008.4
20260903191305 73 135 0.0 0.0 0.00 0.04 0.04 74 1008.8
20260903190805 72 135 0.0 0.0 0.00 0.04 0.04 73 1008.8
20260903190305 72 135 0.0 0.0 0.00 0.04 0.04 73 1008.8
20260903185306 72 121 0.0 0.0 0.00 0.04 0.04 74 1008.8
20260903184805 71 121 0.0 0.0 0.00 0.04 0.04 74 1008.8
20260903184305 71 121 0.0 0.0 0.00 0.04 0.04 74 1008.8
20260903183304 71 63 0.0 0.0 0.00 0.04 0.04 75 1008.8
20260903182306 70 63 0.0 0.0 0.00 0.04 0.04 76 1009.0
20260903181804 70 63 0.0 0.0 0.00 0.04 0.04 77 1009.0
20260903180304 68 63 0.0 0.0 0.00 0.04 0.04 79 1009.3
20260903175306 68 63 0.0 0.0 0.00 0.04 0.04 80 1009.5
20260903173804 67 63 0.0 0.0 0.00 0.04 0.04 81 1009.5
20260903172804 67 63 0.0 0.0 0.00 0.04 0.04 81 1009.8
20260903171804 67 63 0.0 0.0 0.00 0.04 0.04 82 1009.9
20260903170804 66 63 0.0 0.0 0.00 0.04 0.04 82 1009.9
20260903170304 66 63 0.0 0.0 0.00 0.04 0.04 82 1009.9
20260903163805 66 61 0.0 0.0 0.00 0.04 0.04 84 1009.9
20260903163304 66 61 0.0 0.0 0.00 0.04 0.04 85 1009.9
20260903162805 65 61 0.0 0.0 0.00 0.04 0.04 85 1010.7
20260903161304 65 159 0.0 0.0 0.00 0.04 0.04 85 1010.7
20260903160305 65 159 0.0 0.0 0.00 0.04 0.04 85 1010.7
20260903155306 65 159 0.0 0.0 0.00 0.04 0.04 86 1010.7
20260903153304 64 159 0.0 0.0 0.00 0.04 0.04 86 1010.7
20260903150805 64 159 0.0 0.0 0.00 0.04 0.04 86 1010.7
20260903144804 64 159 0.0 0.0 0.00 0.04 0.04 87 1010.9
20260903144305 63 159 0.0 0.0 0.00 0.04 0.04 87 1010.9
20260903143304 63 159 0.0 0.0 0.00 0.04 0.04 87 1010.9
20260903141804 63 159 0.0 0.0 0.00 0.04 0.04 86 1010.9
20260903140804 63 159 0.0 0.0 0.00 0.04 0.04 86 1010.9
20260903135804 63 159 0.0 0.0 0.00 0.04 0.04 86 1010.9
20260903134805 63 159 0.0 0.0 0.00 0.04 0.04 86 1010.9
20260903134304 63 159 0.0 0.0 0.00 0.04 0.04 87 1010.9
20260903133804 62 159 0.0 0.0 0.00 0.04 0.04 86 1010.9
20260903132804 62 159 0.0 0.0 0.00 0.04 0.04 87 1010.9
20260903132306 62 159 0.0 0.0 0.00 0.04 0.04 87 1010.9
20260903130305 62 159 0.0 0.0 0.00 0.04 0.04 87 1011.5
20260903125804 62 159 0.0 0.0 0.00 0.04 0.04 87 1011.5
20260903125305 62 159 0.0 0.0 0.00 0.04 0.04 87 1011.5
20260903123804 62 159 0.0 0.0 0.00 0.04 0.04 87 1011.5
20260903122306 62 159 0.0 0.0 0.00 0.04 0.04 87 1011.5
20260903115804 61 159 0.0 0.0 0.00 0.04 0.04 86 1011.5
20260903114804 61 159 0.0 0.0 0.00 0.04 0.04 86 1011.5
20260903114304 61 159 0.0 0.0 0.00 0.04 0.04 86 1011.5
20260903113805 61 159 0.0 0.0 0.00 0.04 0.04 86 1011.5
20260903113305 61 159 0.0 0.0 0.00 0.04 0.04 86 1011.5
20260903111805 61 159 0.0 0.0 0.00 0.04 0.04 86 1011.5
20260903110804 60 159 0.0 0.0 0.00 0.04 0.04 85 1011.5
20260903110304 60 159 0.0 0.0 0.00 0.04 0.04 85 1011.5
20260903104806 60 159 0.0 0.0 0.00 0.04 0.04 85 1011.4
20260903104305 60 159 0.0 0.0 0.00 0.04 0.04 85 1011.4
20260903103804 60 159 0.0 0.0 0.00 0.04 0.04 85 1011.4
20260903101804 60 159 0.0 0.0 0.00 0.04 0.04 85 1011.3
20260903100805 61 159 0.0 0.0 0.00 0.04 0.04 85 1011.5
20260903100305 61 159 0.0 0.0 0.00 0.04 0.04 85 1011.5
20260903095805 61 159 0.0 0.0 0.00 0.04 0.04 85 1011.5
20260903094804 61 159 0.0 0.0 0.00 0.04 0.04 85 1011.5
20260903093305 61 159 0.0 0.0 0.00 0.04 0.04 85 1011.5
20260903091805 60 159 0.0 0.0 0.00 0.04 0.04 85 1011.6
20260903090304 61 159 0.0 0.0 0.00 0.04 0.04 85 1011.6
20260903083804 60 159 0.0 0.0 0.00 0.04 0.04 85 1011.9
20260903082804 60 159 0.0 0.0 0.00 0.04 0.04 84 1012.2
20260903080804 60 159 0.0 0.0 0.00 0.04 0.04 84 1012.2
20260903080304 60 159 0.0 0.0 0.00 0.04 0.04 84 1012.2
20260903075306 60 159 0.0 0.0 0.00 0.04 0.04 84 1012.2
20260903074805 60 159 0.0 0.0 0.00 0.04 0.04 84 1012.2
20260903073804 60 159 0.0 0.0 0.00 0.04 0.04 84 1012.2
20260903073304 61 159 0.0 0.0 0.00 0.04 0.04 84 1012.2
20260903072306 60 159 0.0 0.0 0.00 0.04 0.04 83 1012.6
20260903071805 60 159 0.0 0.0 0.00 0.04 0.04 83 1012.6
20260903070804 60 159 0.0 0.0 0.01 0.04 0.04 82 1012.6
20260903065306 61 159 0.0 0.0 0.02 0.04 0.04 81 1012.6
20260903064805 61 159 0.0 0.0 0.02 0.04 0.04 81 1012.6
20260903062306 62 159 0.0 0.0 0.03 0.04 0.04 79 1012.6
20260903060805 62 159 0.0 0.0 0.03 0.03 0.03 77 1013.3
20260903060304 62 159 0.0 0.0 0.03 0.03 0.03 76 1013.3
20260903055805 63 159 0.0 0.0 0.03 0.03 0.03 75 1013.3
20260903055306 63 159 0.0 0.0 0.02 0.02 0.02 74 1013.3
20260903054804 64 159 0.0 0.0 0.02 0.02 0.02 72 1013.3
20260903053305 64 159 0.0 0.0 0.01 0.01 0.01 69 1013.3
20260903052307 64 159 0.0 0.0 0.01 0.01 0.01 69 1013.3
20260903051804 65 159 0.0 0.0 0.01 0.01 0.01 69 1013.3
20260903050804 65 159 0.0 0.0 0.00 0.00 0.00 67 1013.4
20260903045306 66 159 0.0 0.0 0.00 0.00 0.00 65 1013.5
20260903044805 66 159 0.0 0.0 0.00 0.00 0.00 65 1013.5
20260903044305 66 159 0.0 1.0 0.00 0.00 0.00 65 1013.6
20260903043304 66 159 0.0 0.0 0.00 0.00 0.00 65 1013.6
20260903035306 65 159 0.0 0.0 0.00 0.00 0.00 67 1014.5
20260903033305 65 159 0.0 0.0 0.00 0.00 0.00 67 1014.5
20260903032805 65 159 0.0 0.0 0.00 0.00 0.00 68 1014.5
20260903032306 65 159 0.0 0.0 0.00 0.00 0.00 69 1014.5
20260903031805 65 159 0.0 0.0 0.00 0.00 0.00 71 1014.5
20260903030804 66 159 0.0 0.0 0.00 0.00 0.00 70 1014.5
20260903025805 66 159 0.0 0.0 0.00 0.00 0.00 67 1014.5
20260903024305 66 159 0.0 0.0 0.00 0.00 0.00 66 1014.5